FENGYUN 1C DEB, 29786

Orbit data source: Space-Track

FENGYUN 1C DEB, 29786 is space debris in SSO originally from a launch on Mon, 10 May 1999 UTC launched from the Taiyaun Space Center, China (TSC). Fengyun 1C debris stems from the Chinese weather satellite Fengyun-1C, which was intentionally destroyed by a Chinese anti-satellite missile in 2007. This event dramatically increased the amount of space debris, with thousands of trackable fragments posing hazards to satellites and human spaceflight. The Fengyun 1C debris cloud has become a focal point in discussions about space sustainability and the need for international regulations to prevent the creation of new debris.

Loading next visibility...
Identifier
29786, 1999-025CC
Orbit
SSO
Country
Flag of CNCN / PRC
Related business
Manufacturer
Unknown
Mission
Spacecraft
Bus & Motor
Unknown
Mass
Unknown
Launch date (UTC)
1999-05-10 (26 years ago)
Launch vehicle
Unknown
Launch site
Taiyaun Space Center, China (TSC)
Object type
Payload
Rocket body
Debris
Shape & HBR
Unknown shape, 0.1 m
Radar Cross Section
Small (<0.1 m²)

Expand to show TLE details & history
Last TLE update: 20 hours ago

TLE from 20 hours ago
0 FENGYUN 1C DEB
1 29786U 99025CC  25302.32237909  .00000324  00000-0  20536-3 0  9992
2 29786  98.7402 320.8848 0078871  68.6345 309.5623 14.09042424965356
Epoch: 2025-10-29T07:44Z
TLE epoch observation values (Epoch: 2025-10-29T07:44:13.553Z)
Latitude
17.27484°
Longitude
164.2053°
Altitude
828.836 km
Speed
7.459 km/s
True Right ascension
21h 12m 38s
True Declination
17° 10' 43"
Sunlit
Object was in daylight at epoch
Visualization orbit readout
Latitude
Unknown
Longitude
Unknown
Altitude
Unknown
Speed
Unknown
Apparent Right ascension
Unknown
Apparent Declination
Unknown
Sunlit
N/A
Visualization observer readout
Local Sidereal Time
23:21:07
Azimuth
Unknown
Elevation
Unknown
Doppler factor
Unknown
Orbital elements
Apogee altitude
916.911 km
Perigee altitude
802.738 km
Semi-major axis
7,237.962 km
Eccentricity
0.00789
Inclination
98.7402°
RAAN
320.8848°
Arg. of periapsis
68.6345°
True anomaly
308.86115°
Mean anomaly
309.5623°
Eccentric anomaly
309.21217°
Mean motion
3.52467 °/min
Orbital period
102.14 mins
BSTAR
0.00020536
Loading maneuver chart data...
Computing Atmospheric mass density...

Documentation

Showing up to 5 results
|